Minot AFB, ND

3:49 AM CDT on April 27, 2017 (GMT -0500)
Minot Air Force Base

Weather History for KMIB - January, 2013

Change the Weather History Date:

Friday, January 25, 2013

  Actual Average Record
Temperature  
Mean Temperature -4 °F -  
Max Temperature 3 °F 16 °F 50 °F (2006)
Min Temperature -10 °F 1 °F -31 °F (1997)
Degree Days  
Heating Degree Days 68    
Moisture  
Dew Point -9 °F    
Average Humidity 71    
Maximum Humidity 76    
Minimum Humidity 66    
Precipitation  
Precipitation 0.00 in - - ()
Sea Level Pressure  
Sea Level Pressure 30.25 in    
Wind  
Wind Speed 13 mph (South)    
Max Wind Speed 23 mph    
Max Gust Speed -    
Visibility 10 miles    
Events      
Averages and records for this station are not official NWS values.
T = Trace of Precipitation, MM = Missing Value Source: NWS Daily Summary

Daily Weather History Graph

Daily Weather History Graph

Search for Another Location

Airport or City:

Trip Planner

Search our weather history database for the weather conditions in past years. The results will help you decide how hot, cold, wet, or windy it might be!

Date:

Astronomy

Jan. 25, 2013 Rise Set
Actual Time 8:22 AM CST 5:33 PM CST
Civil Twilight 7:48 AM CST 6:08 PM CST
Nautical Twilight 7:10 AM CST 6:46 PM CST
Astronomical Twilight 6:33 AM CST 7:23 PM CST
Moon 4:33 PM CST (1/25) 7:04 AM CST (1/25)
Length of Visible Light 10h 19m
Length of Day
9h 11m
Waxing Gibbous, 98% of the Moon is Illuminated
Jan 25
Waxing Gibbous
Jan 26
Full
Feb 3
Last Quarter
Feb 10
New
Feb 17
First Quarter

Hourly Weather History & Observations

Time (CST) Temp. Windchill Dew Point Humidity Pressure Visibility Wind Dir Wind Speed Gust Speed Precip Events Conditions
12:55 AM 3.0 °F -18.8 °F -3.5 °F 74% 30.11 in 10.0 mi WNW 21.9 mph - N/A   Clear
1:55 AM 1.0 °F -21.9 °F -5.4 °F 74% 30.13 in 10.0 mi WNW 23.0 mph - N/A   Clear
2:55 AM -0.8 °F -23.3 °F -6.9 °F 75% 30.16 in 10.0 mi WNW 20.7 mph - N/A   Clear
3:55 AM -2.4 °F -24.9 °F -8.3 °F 76% 30.18 in 10.0 mi WNW 19.6 mph - N/A   Clear
4:55 AM -3.8 °F -26.2 °F -10.1 °F 74% 30.19 in 10.0 mi NW 18.4 mph - N/A   Clear
5:55 AM -5.6 °F -27.3 °F -11.9 °F 74% 30.22 in 10.0 mi NW 16.1 mph - N/A   Clear
6:55 AM -7.1 °F -26.8 °F -13.4 °F 74% 30.23 in 10.0 mi NW 12.7 mph - N/A   Clear
7:55 AM -9.2 °F -26.6 °F -15.0 °F 76% 30.25 in 10.0 mi NW 9.2 mph - N/A   Clear
8:55 AM -10.1 °F -26.5 °F -15.9 °F 76% 30.29 in 10.0 mi WNW 8.1 mph - N/A   Clear
9:55 AM -8.1 °F -24.1 °F -14.6 °F 73% 30.31 in 10.0 mi NW 8.1 mph - N/A   Clear
11:55 AM -5.3 °F - -13.4 °F 68% 30.36 in 10.0 mi Calm Calm - N/A   Clear
12:55 PM -3.8 °F - -12.1 °F 68% 30.34 in 10.0 mi Calm Calm - N/A   Clear
1:55 PM -2.9 °F - -11.4 °F 67% 30.31 in 10.0 mi Calm Calm - N/A   Clear
2:55 PM -2.2 °F -12.5 °F -10.7 °F 67% 30.30 in 10.0 mi South 4.6 mph - N/A   Clear
3:23 PM -2.2 °F -10.4 °F -11.2 °F 66% 30.30 in 10.0 mi South 3.5 mph - N/A   Clear
3:27 PM -2.2 °F -12.5 °F -11.2 °F 66% 30.30 in 10.0 mi South 4.6 mph - N/A   Clear
3:30 PM -2.2 °F -10.4 °F -9.4 °F 71% 30.30 in 10.0 mi SSE 3.5 mph - N/A   Clear
3:34 PM -0.4 °F -8.3 °F -9.4 °F 66% 30.30 in 10.0 mi SSE 3.5 mph - N/A   Clear
3:39 PM -0.4 °F -12.0 °F -9.4 °F 66% 30.30 in 10.0 mi SE 5.8 mph - N/A   Clear
3:43 PM -0.4 °F -12.0 °F -9.4 °F 66% 30.30 in 10.0 mi SE 5.8 mph - N/A   Clear
3:55 PM -0.4 °F -12.0 °F -9.0 °F 67% 30.29 in 10.0 mi SE 5.8 mph - N/A   Clear
4:55 PM -0.8 °F -16.2 °F -8.5 °F 70% 30.28 in 10.0 mi SE 9.2 mph - N/A   Clear
5:55 PM -1.5 °F -19.8 °F -9.0 °F 70% 30.27 in 10.0 mi SE 12.7 mph - N/A   Clear
6:55 PM -1.7 °F -19.2 °F -8.7 °F 72% 30.26 in 10.0 mi SE 11.5 mph - N/A   Clear
7:55 PM -0.6 °F -17.8 °F -7.2 °F 73% 30.25 in 10.0 mi SSE 11.5 mph - N/A   Mostly Cloudy
8:55 PM 0.7 °F -17.8 °F -6.3 °F 72% 30.22 in 10.0 mi SE 13.8 mph - N/A   Overcast
9:55 PM 1.6 °F -18.0 °F -5.1 °F 74% 30.20 in 10.0 mi SE 16.1 mph - N/A   Overcast
10:55 PM 2.7 °F -16.0 °F -3.8 °F 74% 30.17 in 10.0 mi SE 15.0 mph - N/A   Overcast
11:55 PM 3.2 °F -14.6 °F -3.3 °F 74% 30.16 in 10.0 mi SE 13.8 mph - N/A   Clear